QPF
0.01 0.01 0.01 0.02 0.02 0.03 0.02 0.01 0.01 0.01 0.01 0.00 0.00 0.01 0.01 0.01 0.01 0.03 0.04 0.05 0.05 0.04 0.05 0.09 0.14 0.14 0.15 0.16 0.14 0.08 0.08 0.09 0.09 0.11 0.12 0.10 0.11 0.15 0.16 0.13 0.10 0.12 0.17 0.18 0.20 0.20 0.16 0.16 0.16
0.01 0.01 0.02 0.03 0.03 0.02 0.01 0.01 0.01 0.01 0.00 0.00 0.00 0.00 0.00 0.00 0.01 0.03 0.03 0.04 0.06 0.06 0.06 0.09 0.13 0.12 0.13 0.12 0.12 0.09 0.07 0.07 0.08 0.09 0.13 0.12 0.09 0.12 0.13 0.12 0.13 0.16 0.21 0.22 0.23 0.19 0.16 0.18 0.23
0.00 0.01 0.03 0.03 0.03 0.02 0.01 0.01 0.02 0.00 0.00 0.01 0.01 0.00 0.00 0.01 0.01 0.03 0.04 0.05 0.05 0.06 0.07 0.10 0.10 0.10 0.11 0.11 0.12 0.10 0.08 0.08 0.08 0.09 0.12 0.12 0.11 0.13 0.19 0.22 0.21 0.21 0.24 0.27 0.25 0.19 0.21 0.26 0.28
0.01 0.01 0.02 0.02 0.01 0.01 0.01 0.02 0.02 0.01 0.00 0.00 0.01 0.00 0.01 0.01 0.01 0.03 0.03 0.05 0.03 0.05 0.06 0.06 0.07 0.08 0.10 0.10 0.10 0.13 0.11 0.11 0.11 0.11 0.11 0.11 0.10 0.13 0.20 0.23 0.21 0.22 0.29 0.29 0.23 0.26 0.29 0.25 0.20
0.01 0.01 0.02 0.01 0.00 0.01 0.02 0.01 0.01 0.01 0.00 0.00 0.00 0.00 0.01 0.01 0.01 0.02 0.02 0.03 0.02 0.03 0.05 0.06 0.05 0.07 0.09 0.12 0.14 0.17 0.17 0.14 0.13 0.11 0.07 0.09 0.12 0.17 0.21 0.21 0.21 0.23 0.26 0.32 0.35 0.37 0.29 0.23 0.20
0.01 0.01 0.01 0.01 0.00 0.00 0.01 0.00 0.01 0.01 0.01 0.01 0.01 0.00 0.02 0.01 0.01 0.01 0.01 0.01 0.02 0.02 0.03 0.04 0.05 0.06 0.08 0.10 0.12 0.15 0.17 0.13 0.09 0.08 0.07 0.08 0.13 0.19 0.16 0.17 0.24 0.28 0.32 0.32 0.34 0.39 0.36 0.32 0.32
0.01 0.01 0.00 0.00 0.00 0.00 0.00 0.00 0.00 0.01 0.01 0.00 0.00 0.01 0.02 0.01 0.01 0.01 0.01 0.01 0.02 0.03 0.03 0.03 0.05 0.09 0.10 0.10 0.12 0.14 0.14 0.10 0.08 0.07 0.08 0.09 0.14 0.19 0.17 0.18 0.22 0.26 0.39 0.35 0.30 0.33 0.36 0.44 0.42
0.00 0.00 0.00 0.00 0.00 0.00 0.00 0.00 0.00 0.01 0.00 0.00 0.00 0.01 0.01 0.01 0.01 0.01 0.01 0.01 0.01 0.02 0.02 0.02 0.04 0.06 0.08 0.10 0.14 0.13 0.12 0.11 0.09 0.09 0.09 0.12 0.14 0.18 0.21 0.24 0.17 0.18 0.33 0.35 0.30 0.27 0.36 0.43 0.28
0.00 0.00 0.00 0.00 0.00 0.00 0.00 0.00 0.00 0.00 0.00 0.00 0.01 0.01 0.02 0.01 0.01 0.01 0.02 0.02 0.02 0.02 0.03 0.03 0.04 0.05 0.05 0.07 0.11 0.14 0.13 0.12 0.12 0.10 0.10 0.13 0.16 0.15 0.16 0.23 0.31 0.31 0.35 0.32 0.23 0.19 0.25 0.29 0.21
0.00 0.00 0.00 0.00 0.00 0.00 0.00 0.00 0.00 0.00 0.00 0.01 0.01 0.01 0.01 0.01 0.01 0.01 0.02 0.03 0.04 0.05 0.05 0.04 0.02 0.03 0.04 0.04 0.08 0.11 0.11 0.11 0.12 0.12 0.14 0.15 0.15 0.15 0.15 0.17 0.24 0.28 0.29 0.25 0.17 0.15 0.13 0.11 0.12
0.00 0.00 0.00 0.00 0.00 0.00 0.00 0.00 0.01 0.01 0.01 0.02 0.02 0.01 0.01 0.01 0.01 0.00 0.01 0.02 0.04 0.06 0.06 0.05 0.03 0.03 0.05 0.07 0.07 0.09 0.10 0.10 0.10 0.12 0.17 0.16 0.15 0.14 0.14 0.14 0.16 0.19 0.24 0.21 0.15 0.13 0.08 0.06 0.06
0.00 0.00 0.00 0.00 0.01 0.01 0.00 0.00 0.01 0.01 0.01 0.01 0.00 0.00 0.00 0.01 0.01 0.01 0.01 0.02 0.04 0.06 0.08 0.07 0.06 0.05 0.05 0.06 0.09 0.11 0.12 0.11 0.11 0.13 0.13 0.14 0.16 0.18 0.16 0.14 0.14 0.17 0.19 0.15 0.11 0.10 0.07 0.05 0.04
0.00 0.00 0.00 0.00 0.00 0.00 0.00 0.00 0.01 0.01 0.01 0.01 0.01 0.00 0.01 0.01 0.01 0.01 0.01 0.01 0.03 0.05 0.07 0.07 0.06 0.04 0.03 0.05 0.10 0.13 0.13 0.11 0.11 0.10 0.10 0.11 0.13 0.14 0.15 0.15 0.13 0.13 0.12 0.10 0.09 0.06 0.05 0.04 0.04
0.00 0.00 0.00 0.00 0.00 0.00 0.00 0.00 0.00 0.01 0.01 0.01 0.01 0.01 0.01 0.01 0.01 0.01 0.01 0.01 0.02 0.03 0.04 0.04 0.03 0.03 0.03 0.04 0.06 0.08 0.09 0.09 0.08 0.09 0.11 0.12 0.10 0.08 0.08 0.09 0.10 0.08 0.06 0.05 0.06 0.05 0.06 0.05 0.04
0.00 0.00 0.00 0.00 0.01 0.01 0.00 0.00 0.00 0.01 0.02 0.02 0.02 0.02 0.02 0.02 0.02 0.01 0.01 0.01 0.01 0.02 0.02 0.02 0.01 0.01 0.01 0.02 0.03 0.03 0.04 0.06 0.07 0.08 0.07 0.07 0.06 0.05 0.05 0.05 0.06 0.04 0.03 0.03 0.03 0.04 0.05 0.05 0.04
0.00 0.00 0.01 0.01 0.01 0.01 0.01 0.01 0.01 0.01 0.01 0.02 0.02 0.01 0.01 0.02 0.03 0.02 0.02 0.01 0.01 0.01 0.01 0.01 0.01 0.01 0.01 0.02 0.02 0.02 0.03 0.04 0.04 0.05 0.04 0.03 0.04 0.03 0.03 0.03 0.04 0.03 0.03 0.04 0.04 0.03 0.04 0.04 0.03
0.00 0.00 0.01 0.01 0.01 0.00 0.01 0.01 0.01 0.01 0.01 0.01 0.01 0.02 0.01 0.02 0.03 0.02 0.01 0.01 0.01 0.01 0.01 0.01 0.01 0.02 0.01 0.01 0.01 0.02 0.02 0.03 0.04 0.04 0.03 0.03 0.02 0.02 0.02 0.02 0.03 0.02 0.02 0.03 0.03 0.02 0.03 0.04 0.04
0.00 0.00 0.01 0.01 0.01 0.00 0.00 0.00 0.01 0.01 0.01 0.01 0.01 0.01 0.01 0.02 0.03 0.02 0.01 0.01 0.01 0.01 0.02 0.01 0.02 0.02 0.02 0.02 0.01 0.01 0.01 0.02 0.03 0.03 0.04 0.03 0.02 0.02 0.02 0.03 0.02 0.02 0.03 0.03 0.03 0.03 0.04 0.04 0.04
0.00 0.00 0.00 0.01 0.00 0.00 0.00 0.00 0.01 0.01 0.01 0.01 0.01 0.01 0.01 0.02 0.02 0.02 0.02 0.01 0.01 0.01 0.02 0.01 0.02 0.02 0.03 0.02 0.03 0.02 0.02 0.02 0.03 0.03 0.03 0.03 0.02 0.02 0.03 0.02 0.02 0.03 0.03 0.04 0.04 0.03 0.04 0.04 0.04
0.00 0.00 0.00 0.00 0.00 0.00 0.00 0.00 0.00 0.00 0.00 0.00 0.01 0.01 0.01 0.02 0.02 0.02 0.03 0.02 0.01 0.01 0.02 0.01 0.01 0.02 0.02 0.02 0.02 0.03 0.02 0.02 0.03 0.05 0.05 0.03 0.02 0.02 0.02 0.03 0.02 0.02 0.02 0.03 0.03 0.03 0.03 0.03 0.04
0.00 0.00 0.00 0.00 0.00 0.00 0.00 0.00 0.00 0.00 0.00 0.00 0.00 0.01 0.01 0.01 0.01 0.01 0.02 0.02 0.02 0.01 0.02 0.01 0.01 0.01 0.02 0.02 0.02 0.02 0.02 0.02 0.03 0.05 0.05 0.04 0.02 0.02 0.03 0.03 0.02 0.02 0.02 0.02 0.03 0.03 0.03 0.04 0.04
0.00 0.00 0.00 0.00 0.00 0.00 0.00 0.00 0.00 0.00 0.00 0.00 0.00 0.00 0.00 0.00 0.00 0.00 0.00 0.01 0.01 0.01 0.01 0.02 0.01 0.01 0.02 0.02 0.03 0.02 0.02 0.02 0.03 0.03 0.02 0.03 0.02 0.02 0.02 0.03 0.03 0.03 0.02 0.02 0.03 0.03 0.04 0.05 0.04
0.00 0.00 0.00 0.00 0.00 0.01 0.00 0.00 0.00 0.00 0.00 0.00 0.00 0.00 0.00 0.00 0.00 0.00 0.00 0.00 0.01 0.01 0.01 0.01 0.01 0.01 0.02 0.02 0.02 0.02 0.02 0.02 0.02 0.02 0.02 0.03 0.02 0.02 0.02 0.02 0.03 0.03 0.02 0.03 0.03 0.04 0.05 0.05 0.05
0.00 0.01 0.01 0.01 0.01 0.01 0.00 0.00 0.00 0.00 0.00 0.00 0.00 0.00 0.00 0.01 0.01 0.00 0.01 0.01 0.02 0.02 0.01 0.01 0.02 0.01 0.01 0.01 0.02 0.02 0.02 0.02 0.02 0.03 0.03 0.03 0.03 0.03 0.03 0.03 0.05 0.04 0.04 0.04 0.04 0.04 0.05 0.04 0.04
0.00 0.01 0.02 0.02 0.02 0.01 0.00 0.00 0.00 0.00 0.00 0.00 0.00 0.00 0.00 0.01 0.01 0.01 0.01 0.01 0.01 0.01 0.01 0.01 0.01 0.02 0.02 0.01 0.02 0.02 0.03 0.03 0.03 0.03 0.03 0.03 0.04 0.03 0.03 0.03 0.05 0.04 0.03 0.03 0.04 0.04 0.04 0.03 0.04
0.00 0.01 0.01 0.01 0.01 0.01 0.01 0.01 0.00 0.00 0.00 0.00 0.00 0.00 0.00 0.00 0.00 0.01 0.01 0.01 0.01 0.00 0.00 0.00 0.01 0.02 0.02 0.02 0.02 0.03 0.03 0.02 0.02 0.03 0.02 0.03 0.03 0.03 0.02 0.03 0.03 0.03 0.04 0.04 0.04 0.03 0.03 0.03 0.03
0.01 0.01 0.01 0.01 0.00 0.00 0.00 0.00 0.00 0.00 0.00 0.00 0.00 0.00 0.00 0.00 0.00 0.00 0.01 0.01 0.01 0.00 0.00 0.00 0.01 0.02 0.03 0.05 0.05 0.03 0.02 0.02 0.03 0.03 0.03 0.02 0.02 0.02 0.03 0.03 0.04 0.06 0.08 0.08 0.06 0.04 0.03 0.03 0.03
0.00 0.01 0.02 0.01 0.01 0.01 0.00 0.00 0.00 0.00 0.00 0.00 0.00 0.00 0.00 0.00 0.00 0.00 0.00 0.00 0.01 0.01 0.01 0.01 0.02 0.03 0.03 0.06 0.07 0.04 0.03 0.02 0.02 0.02 0.03 0.02 0.01 0.01 0.02 0.03 0.03 0.05 0.06 0.06 0.06 0.03 0.02 0.02 0.03
0.00 0.01 0.01 0.01 0.02 0.01 0.01 0.00 0.00 0.00 0.00 0.00 0.00 0.00 0.00 0.00 0.00 0.00 0.00 0.00 0.00 0.01 0.01 0.02 0.03 0.03 0.04 0.04 0.04 0.04 0.03 0.02 0.02 0.02 0.02 0.02 0.02 0.02 0.02 0.02 0.03 0.06 0.08 0.07 0.05 0.03 0.02 0.02 0.03
0.00 0.00 0.01 0.01 0.01 0.01 0.01 0.00 0.00 0.00 0.00 0.00 0.00 0.00 0.00 0.00 0.00 0.00 0.00 0.00 0.00 0.00 0.01 0.01 0.02 0.02 0.02 0.01 0.01 0.02 0.02 0.02 0.03 0.02 0.02 0.02 0.03 0.02 0.02 0.02 0.03 0.05 0.05 0.06 0.05 0.04 0.03 0.04 0.04
MSLP
1006.83 1007.39 1008.16 1009.04 1009.92 1010.70 1011.33 1011.75 1011.99 1012.09 1012.11 1012.09 1012.07 1012.04 1011.99 1011.86 1011.61 1011.18 1010.54 1009.68 1008.58 1007.25 1005.71 1003.97 1002.11 1000.20 998.38 996.79 995.58 994.89 994.80 995.35 996.48 998.03 999.83 1001.66 1003.36 1004.78 1005.88 1006.67 1007.23 1007.66 1008.08 1008.54 1009.06 1009.64 1010.23 1010.76 1011.19
1006.92 1007.61 1008.48 1009.43 1010.34 1011.11 1011.68 1012.03 1012.17 1012.16 1012.08 1011.98 1011.90 1011.85 1011.79 1011.67 1011.43 1011.03 1010.43 1009.61 1008.56 1007.31 1005.86 1004.25 1002.54 1000.80 999.14 997.69 996.57 995.92 995.81 996.28 997.27 998.66 1000.29 1001.96 1003.52 1004.84 1005.88 1006.63 1007.19 1007.63 1008.06 1008.54 1009.08 1009.67 1010.27 1010.81 1011.26
1007.19 1007.98 1008.92 1009.90 1010.80 1011.53 1012.02 1012.26 1012.28 1012.16 1011.98 1011.80 1011.67 1011.59 1011.52 1011.41 1011.20 1010.84 1010.28 1009.52 1008.56 1007.41 1006.09 1004.65 1003.13 1001.59 1000.12 998.82 997.82 997.21 997.07 997.44 998.27 999.47 1000.89 1002.38 1003.77 1004.97 1005.93 1006.65 1007.19 1007.65 1008.10 1008.59 1009.16 1009.76 1010.37 1010.92 1011.37
1007.61 1008.47 1009.45 1010.42 1011.28 1011.93 1012.32 1012.45 1012.36 1012.14 1011.88 1011.64 1011.47 1011.37 1011.30 1011.21 1011.02 1010.69 1010.19 1009.50 1008.64 1007.62 1006.47 1005.22 1003.91 1002.58 1001.31 1000.18 999.29 998.72 998.54 998.80 999.47 1000.46 1001.66 1002.94 1004.15 1005.22 1006.09 1006.76 1007.29 1007.76 1008.23 1008.75 1009.33 1009.94 1010.55 1011.09 1011.53
1008.11 1009.01 1009.99 1010.93 1011.71 1012.27 1012.57 1012.60 1012.43 1012.14 1011.82 1011.55 1011.37 1011.26 1011.20 1011.12 1010.96 1010.67 1010.23 1009.62 1008.86 1007.98 1007.01 1005.97 1004.88 1003.79 1002.73 1001.77 1000.98 1000.45 1000.23 1000.38 1000.87 1001.65 1002.62 1003.68 1004.71 1005.63 1006.40 1007.02 1007.53 1008.00 1008.49 1009.02 1009.60 1010.21 1010.80 1011.31 1011.72
1008.62 1009.52 1010.46 1011.33 1012.04 1012.51 1012.71 1012.68 1012.45 1012.14 1011.81 1011.54 1011.37 1011.28 1011.23 1011.18 1011.04 1010.79 1010.40 1009.87 1009.23 1008.50 1007.72 1006.90 1006.05 1005.19 1004.34 1003.56 1002.89 1002.40 1002.14 1002.18 1002.49 1003.06 1003.80 1004.63 1005.46 1006.23 1006.89 1007.44 1007.93 1008.39 1008.87 1009.40 1009.98 1010.56 1011.11 1011.58 1011.93
1009.02 1009.89 1010.77 1011.56 1012.18 1012.57 1012.72 1012.65 1012.42 1012.11 1011.82 1011.59 1011.45 1011.39 1011.37 1011.34 1011.23 1011.01 1010.67 1010.22 1009.70 1009.13 1008.54 1007.94 1007.33 1006.72 1006.09 1005.49 1004.94 1004.51 1004.23 1004.16 1004.32 1004.68 1005.19 1005.80 1006.43 1007.03 1007.57 1008.05 1008.48 1008.92 1009.39 1009.90 1010.44 1010.98 1011.48 1011.88 1012.17
1009.28 1010.09 1010.89 1011.59 1012.13 1012.46 1012.57 1012.50 1012.30 1012.04 1011.81 1011.64 1011.56 1011.55 1011.56 1011.54 1011.45 1011.25 1010.96 1010.60 1010.19 1009.77 1009.37 1008.99 1008.63 1008.25 1007.85 1007.44 1007.03 1006.66 1006.38 1006.24 1006.26 1006.43 1006.74 1007.14 1007.58 1008.01 1008.42 1008.80 1009.18 1009.57 1010.01 1010.49 1010.99 1011.49 1011.91 1012.25 1012.46
1009.38 1010.12 1010.83 1011.45 1011.91 1012.20 1012.29 1012.24 1012.09 1011.91 1011.76 1011.67 1011.65 1011.68 1011.72 1011.72 1011.64 1011.47 1011.22 1010.92 1010.62 1010.34 1010.12 1009.94 1009.80 1009.65 1009.47 1009.25 1008.98 1008.70 1008.44 1008.26 1008.17 1008.20 1008.33 1008.55 1008.81 1009.09 1009.38 1009.67 1009.98 1010.34 1010.74 1011.18 1011.64 1012.07 1012.44 1012.69 1012.83
1009.37 1010.03 1010.66 1011.19 1011.60 1011.84 1011.94 1011.92 1011.83 1011.73 1011.66 1011.65 1011.70 1011.77 1011.84 1011.85 1011.78 1011.62 1011.40 1011.15 1010.93 1010.77 1010.69 1010.69 1010.74 1010.79 1010.81 1010.76 1010.63 1010.45 1010.24 1010.05 1009.90 1009.83 1009.84 1009.92 1010.04 1010.20 1010.39 1010.61 1010.87 1011.18 1011.55 1011.96 1012.37 1012.75 1013.05 1013.24 1013.31
1009.34 1009.93 1010.48 1010.94 1011.28 1011.50 1011.60 1011.61 1011.58 1011.55 1011.56 1011.61 1011.71 1011.82 1011.90 1011.92 1011.86 1011.71 1011.50 1011.29 1011.12 1011.04 1011.06 1011.19 1011.37 1011.58 1011.75 1011.85 1011.86 1011.78 1011.64 1011.47 1011.31 1011.20 1011.14 1011.13 1011.17 1011.26 1011.39 1011.56 1011.79 1012.08 1012.42 1012.80 1013.18 1013.52 1013.77 1013.90 1013.90
1009.37 1009.91 1010.39 1010.78 1011.07 1011.25 1011.35 1011.38 1011.39 1011.41 1011.47 1011.58 1011.71 1011.85 1011.95 1011.97 1011.91 1011.76 1011.56 1011.37 1011.23 1011.18 1011.26 1011.44 1011.71 1012.01 1012.28 1012.49 1012.60 1012.62 1012.55 1012.43 1012.31 1012.20 1012.13 1012.11 1012.13 1012.19 1012.31 1012.47 1012.69 1012.97 1013.31 1013.67 1014.03 1014.34 1014.55 1014.63 1014.59
1009.55 1010.03 1010.44 1010.77 1011.01 1011.16 1011.24 1011.28 1011.30 1011.35 1011.44 1011.57 1011.73 1011.88 1011.99 1012.02 1011.97 1011.83 1011.64 1011.45 1011.30 1011.26 1011.33 1011.53 1011.81 1012.14 1012.46 1012.72 1012.91 1012.99 1013.00 1012.96 1012.89 1012.83 1012.80 1012.81 1012.86 1012.95 1013.09 1013.28 1013.51 1013.81 1014.14 1014.50 1014.84 1015.13 1015.31 1015.37 1015.29
1009.88 1010.31 1010.66 1010.93 1011.12 1011.23 1011.28 1011.31 1011.33 1011.38 1011.47 1011.60 1011.77 1011.93 1012.05 1012.10 1012.06 1011.94 1011.76 1011.57 1011.41 1011.34 1011.38 1011.54 1011.79 1012.09 1012.41 1012.68 1012.90 1013.03 1013.10 1013.12 1013.13 1013.14 1013.17 1013.25 1013.36 1013.51 1013.70 1013.93 1014.20 1014.51 1014.84 1015.19 1015.52 1015.79 1015.96 1016.01 1015.92
1010.32 1010.70 1010.99 1011.21 1011.34 1011.42 1011.44 1011.43 1011.42 1011.44 1011.52 1011.64 1011.80 1011.97 1012.11 1012.19 1012.19 1012.10 1011.94 1011.76 1011.59 1011.49 1011.48 1011.57 1011.76 1012.01 1012.29 1012.54 1012.76 1012.92 1013.02 1013.10 1013.16 1013.24 1013.35 1013.49 1013.68 1013.89 1014.14 1014.41 1014.70 1015.02 1015.35 1015.68 1015.99 1016.24 1016.40 1016.45 1016.38
1010.78 1011.10 1011.34 1011.51 1011.60 1011.64 1011.62 1011.57 1011.52 1011.51 1011.54 1011.64 1011.78 1011.96 1012.12 1012.25 1012.29 1012.25 1012.14 1011.99 1011.83 1011.71 1011.66 1011.70 1011.83 1012.02 1012.24 1012.47 1012.66 1012.82 1012.95 1013.05 1013.16 1013.28 1013.44 1013.63 1013.86 1014.12 1014.41 1014.70 1015.01 1015.32 1015.62 1015.92 1016.19 1016.42 1016.57 1016.63 1016.59
1011.16 1011.42 1011.61 1011.75 1011.82 1011.82 1011.77 1011.68 1011.58 1011.51 1011.49 1011.55 1011.67 1011.85 1012.04 1012.21 1012.32 1012.35 1012.31 1012.20 1012.08 1011.97 1011.91 1011.92 1012.01 1012.17 1012.35 1012.55 1012.73 1012.89 1013.01 1013.12 1013.23 1013.37 1013.54 1013.75 1013.99 1014.26 1014.55 1014.85 1015.13 1015.41 1015.67 1015.92 1016.14 1016.33 1016.47 1016.55 1016.56
1011.39 1011.60 1011.76 1011.87 1011.93 1011.92 1011.84 1011.71 1011.56 1011.42 1011.34 1011.34 1011.43 1011.60 1011.81 1012.03 1012.21 1012.33 1012.37 1012.34 1012.28 1012.21 1012.18 1012.21 1012.30 1012.45 1012.63 1012.83 1013.01 1013.16 1013.28 1013.37 1013.46 1013.58 1013.72 1013.90 1014.12 1014.37 1014.63 1014.89 1015.13 1015.36 1015.56 1015.74 1015.90 1016.05 1016.17 1016.27 1016.33
1011.45 1011.61 1011.76 1011.88 1011.95 1011.94 1011.84 1011.67 1011.46 1011.26 1011.10 1011.04 1011.08 1011.22 1011.45 1011.71 1011.95 1012.15 1012.28 1012.35 1012.37 1012.37 1012.40 1012.48 1012.61 1012.80 1013.02 1013.25 1013.45 1013.61 1013.73 1013.81 1013.86 1013.92 1014.01 1014.14 1014.30 1014.49 1014.70 1014.90 1015.09 1015.25 1015.38 1015.49 1015.58 1015.67 1015.77 1015.88 1015.99
1011.36 1011.51 1011.67 1011.83 1011.92 1011.93 1011.83 1011.62 1011.35 1011.07 1010.83 1010.68 1010.66 1010.77 1010.99 1011.28 1011.57 1011.85 1012.06 1012.21 1012.32 1012.41 1012.52 1012.67 1012.88 1013.15 1013.44 1013.72 1013.98 1014.17 1014.29 1014.36 1014.38 1014.38 1014.40 1014.45 1014.55 1014.67 1014.82 1014.96 1015.08 1015.18 1015.24 1015.28 1015.30 1015.34 1015.40 1015.50 1015.65
1011.19 1011.36 1011.57 1011.78 1011.93 1011.97 1011.87 1011.63 1011.30 1010.93 1010.60 1010.36 1010.27 1010.33 1010.53 1010.82 1011.15 1011.48 1011.76 1011.98 1012.16 1012.33 1012.52 1012.75 1013.05 1013.40 1013.78 1014.15 1014.47 1014.71 1014.87 1014.93 1014.93 1014.89 1014.85 1014.83 1014.86 1014.92 1015.01 1015.11 1015.19 1015.23 1015.24 1015.22 1015.18 1015.16 1015.17 1015.25 1015.39
1011.01 1011.25 1011.54 1011.84 1012.05 1012.13 1012.03 1011.76 1011.37 1010.91 1010.49 1010.16 1009.99 1010.00 1010.17 1010.45 1010.80 1011.15 1011.47 1011.74 1011.97 1012.19 1012.43 1012.73 1013.09 1013.52 1013.98 1014.43 1014.83 1015.14 1015.34 1015.43 1015.42 1015.36 1015.29 1015.23 1015.22 1015.25 1015.31 1015.38 1015.43 1015.45 1015.42 1015.36 1015.27 1015.19 1015.14 1015.17 1015.30
1010.90 1011.23 1011.64 1012.03 1012.31 1012.43 1012.34 1012.04 1011.58 1011.05 1010.53 1010.13 1009.89 1009.85 1009.99 1010.26 1010.61 1010.97 1011.31 1011.59 1011.83 1012.07 1012.33 1012.65 1013.05 1013.53 1014.04 1014.56 1015.03 1015.41 1015.66 1015.79 1015.81 1015.76 1015.69 1015.62 1015.60 1015.62 1015.67 1015.74 1015.80 1015.81 1015.78 1015.68 1015.56 1015.42 1015.32 1015.29 1015.35
1010.86 1011.32 1011.84 1012.33 1012.69 1012.84 1012.75 1012.42 1011.91 1011.31 1010.73 1010.27 1009.99 1009.92 1010.04 1010.31 1010.65 1011.02 1011.34 1011.62 1011.84 1012.05 1012.29 1012.59 1012.98 1013.46 1014.00 1014.56 1015.08 1015.51 1015.82 1016.00 1016.07 1016.05 1016.01 1015.97 1015.96 1016.00 1016.08 1016.17 1016.25 1016.28 1016.24 1016.14 1015.99 1015.81 1015.65 1015.55 1015.54
1010.89 1011.48 1012.11 1012.68 1013.09 1013.27 1013.17 1012.81 1012.27 1011.63 1011.02 1010.54 1010.24 1010.17 1010.30 1010.58 1010.94 1011.30 1011.61 1011.86 1012.04 1012.20 1012.38 1012.62 1012.97 1013.41 1013.93 1014.49 1015.03 1015.50 1015.86 1016.09 1016.21 1016.26 1016.26 1016.26 1016.29 1016.37 1016.48 1016.61 1016.71 1016.77 1016.75 1016.65 1016.48 1016.27 1016.06 1015.90 1015.82
1010.94 1011.62 1012.34 1012.97 1013.41 1013.60 1013.49 1013.12 1012.56 1011.91 1011.31 1010.84 1010.57 1010.54 1010.70 1011.01 1011.40 1011.77 1012.08 1012.29 1012.43 1012.52 1012.62 1012.78 1013.05 1013.43 1013.90 1014.43 1014.96 1015.44 1015.84 1016.12 1016.30 1016.41 1016.46 1016.52 1016.60 1016.71 1016.86 1017.01 1017.15 1017.22 1017.22 1017.13 1016.96 1016.73 1016.49 1016.28 1016.14
1010.94 1011.70 1012.45 1013.11 1013.55 1013.72 1013.59 1013.22 1012.66 1012.05 1011.48 1011.07 1010.87 1010.90 1011.14 1011.51 1011.93 1012.33 1012.64 1012.84 1012.93 1012.97 1012.99 1013.07 1013.25 1013.55 1013.95 1014.43 1014.94 1015.42 1015.83 1016.16 1016.39 1016.54 1016.66 1016.76 1016.88 1017.02 1017.19 1017.37 1017.51 1017.60 1017.61 1017.54 1017.38 1017.16 1016.91 1016.68 1016.50
1010.87 1011.64 1012.39 1013.01 1013.42 1013.56 1013.42 1013.05 1012.53 1011.96 1011.47 1011.15 1011.04 1011.17 1011.49 1011.93 1012.41 1012.85 1013.18 1013.37 1013.45 1013.45 1013.42 1013.44 1013.54 1013.77 1014.11 1014.53 1015.00 1015.47 1015.89 1016.24 1016.51 1016.71 1016.87 1017.01 1017.16 1017.32 1017.50 1017.68 1017.82 1017.92 1017.94 1017.88 1017.74 1017.54 1017.31 1017.09 1016.91
1010.73 1011.45 1012.14 1012.68 1013.02 1013.11 1012.95 1012.59 1012.12 1011.63 1011.24 1011.02 1011.03 1011.25 1011.66 1012.18 1012.72 1013.20 1013.56 1013.77 1013.86 1013.85 1013.81 1013.80 1013.86 1014.04 1014.34 1014.72 1015.16 1015.62 1016.04 1016.41 1016.70 1016.94 1017.13 1017.29 1017.46 1017.63 1017.80 1017.97 1018.11 1018.20 1018.22 1018.18 1018.07 1017.91 1017.73 1017.55 1017.41
1010.54 1011.16 1011.73 1012.17 1012.41 1012.44 1012.25 1011.91 1011.49 1011.09 1010.81 1010.70 1010.81 1011.13 1011.61 1012.19 1012.77 1013.29 1013.69 1013.94 1014.06 1014.08 1014.06 1014.06 1014.13 1014.31 1014.58 1014.95 1015.38 1015.82 1016.25 1016.63 1016.95 1017.21 1017.42 1017.61 1017.78 1017.95 1018.12 1018.27 1018.40 1018.48 1018.52 1018.50 1018.43 1018.32 1018.20 1018.09 1018.00
Thickness
5819 5822 5822 5817 5810 5806 5797 5804 5812 5810 5811 5815 5815 5812 5804 5797 5791 5782 5804 5812 5811 5811 5809 5805 5802 5802 5802 5803 5803 5804 5804 5803 5802 5801 5800 5800 5800 5799 5799 5799 5799 5798 5798 5796 5794 5792 5790 5788 5786
5826 5825 5820 5817 5810 5796 5794 5808 5808 5810 5814 5818 5816 5812 5806 5800 5804 5803 5807 5809 5811 5811 5810 5806 5802 5801 5801 5802 5803 5803 5803 5802 5801 5801 5800 5800 5800 5799 5799 5799 5799 5798 5797 5795 5792 5791 5789 5787 5785
5828 5826 5820 5819 5809 5800 5797 5809 5810 5815 5820 5817 5812 5812 5806 5799 5804 5805 5808 5811 5812 5810 5808 5804 5801 5800 5801 5801 5801 5802 5802 5802 5801 5800 5799 5799 5799 5799 5798 5799 5798 5797 5796 5793 5791 5789 5787 5786 5785
5828 5825 5824 5817 5805 5810 5812 5814 5817 5815 5816 5817 5814 5805 5805 5806 5808 5809 5811 5812 5811 5810 5809 5804 5800 5800 5800 5800 5800 5801 5801 5801 5800 5799 5799 5798 5798 5798 5797 5797 5796 5795 5794 5791 5790 5788 5786 5785 5784
5831 5826 5820 5813 5810 5816 5822 5822 5822 5815 5812 5814 5813 5801 5797 5807 5812 5813 5812 5812 5811 5810 5809 5805 5800 5799 5800 5800 5800 5801 5801 5800 5799 5798 5798 5797 5797 5797 5797 5796 5793 5792 5791 5790 5789 5787 5784 5783 5783
5828 5829 5816 5806 5809 5817 5824 5827 5824 5817 5814 5814 5811 5803 5797 5808 5810 5811 5813 5812 5812 5810 5809 5806 5800 5799 5799 5799 5799 5800 5799 5799 5798 5797 5797 5796 5796 5797 5797 5795 5793 5791 5790 5788 5787 5785 5783 5782 5781
5823 5826 5816 5815 5812 5814 5820 5829 5823 5817 5812 5813 5816 5804 5801 5806 5810 5813 5812 5812 5812 5810 5809 5808 5806 5803 5800 5800 5799 5798 5798 5797 5797 5796 5796 5796 5795 5795 5795 5794 5792 5790 5789 5787 5785 5783 5782 5780 5779
5834 5830 5821 5819 5814 5812 5824 5828 5826 5821 5814 5822 5821 5805 5799 5805 5813 5814 5812 5811 5810 5810 5810 5809 5808 5806 5805 5803 5799 5798 5797 5796 5796 5795 5795 5795 5795 5793 5793 5792 5791 5790 5788 5785 5783 5782 5781 5779 5779
5839 5828 5816 5818 5818 5818 5827 5825 5826 5830 5822 5819 5820 5816 5813 5813 5813 5811 5808 5807 5806 5807 5808 5809 5808 5807 5806 5805 5801 5800 5798 5796 5796 5796 5795 5795 5796 5795 5793 5790 5789 5788 5786 5784 5782 5781 5779 5779 5778
5836 5822 5820 5830 5832 5829 5828 5825 5825 5822 5815 5811 5812 5814 5815 5813 5810 5807 5805 5803 5802 5803 5806 5808 5807 5806 5806 5805 5803 5802 5801 5798 5796 5795 5795 5794 5793 5792 5792 5788 5787 5786 5784 5782 5781 5780 5779 5779 5779
5835 5825 5830 5835 5839 5837 5830 5827 5829 5821 5810 5811 5809 5809 5811 5810 5808 5806 5805 5804 5803 5805 5805 5806 5805 5804 5805 5804 5803 5801 5800 5797 5796 5795 5794 5793 5793 5792 5792 5790 5788 5786 5784 5784 5781 5781 5781 5781 5779
5833 5833 5836 5837 5840 5837 5832 5829 5825 5821 5817 5823 5820 5816 5812 5808 5807 5806 5805 5805 5804 5804 5804 5805 5805 5803 5801 5802 5802 5801 5799 5797 5796 5793 5793 5793 5792 5790 5789 5788 5787 5786 5784 5782 5781 5780 5780 5779 5778
5832 5832 5838 5840 5840 5838 5835 5828 5823 5819 5824 5826 5821 5815 5811 5810 5809 5809 5808 5806 5804 5803 5803 5803 5802 5800 5799 5798 5799 5799 5798 5798 5796 5793 5791 5791 5791 5789 5788 5785 5784 5784 5783 5782 5780 5779 5778 5778 5778
5836 5836 5837 5839 5838 5836 5829 5827 5823 5818 5825 5820 5816 5813 5811 5810 5809 5808 5806 5803 5803 5803 5803 5803 5801 5800 5797 5797 5796 5796 5797 5794 5795 5792 5790 5788 5788 5786 5785 5784 5781 5781 5781 5780 5779 5778 5777 5777 5776
5840 5832 5832 5835 5836 5835 5832 5817 5818 5822 5824 5817 5814 5812 5810 5810 5810 5807 5806 5805 5805 5803 5803 5802 5801 5800 5797 5796 5796 5796 5796 5795 5793 5790 5788 5787 5787 5785 5784 5783 5781 5780 5779 5778 5777 5777 5777 5776 5775
5836 5828 5820 5828 5835 5834 5825 5807 5819 5826 5822 5815 5814 5811 5809 5808 5810 5810 5809 5807 5806 5804 5801 5801 5803 5800 5796 5794 5794 5795 5794 5792 5791 5790 5788 5786 5785 5784 5783 5783 5782 5780 5780 5779 5777 5777 5775 5774 5774
5827 5819 5818 5823 5834 5833 5825 5812 5821 5828 5823 5816 5814 5813 5810 5808 5809 5811 5811 5809 5807 5804 5801 5799 5799 5798 5796 5794 5793 5792 5791 5790 5789 5788 5786 5784 5784 5783 5783 5782 5780 5780 5780 5779 5778 5776 5774 5772 5771
5815 5818 5818 5818 5829 5828 5820 5817 5822 5826 5824 5819 5817 5815 5812 5809 5809 5812 5811 5810 5808 5805 5802 5799 5798 5796 5795 5794 5792 5791 5790 5789 5788 5787 5784 5783 5783 5782 5782 5781 5779 5780 5779 5777 5775 5772 5771 5772 5772
5824 5818 5815 5820 5830 5824 5818 5817 5821 5825 5823 5820 5818 5816 5813 5812 5814 5814 5812 5810 5808 5805 5801 5799 5797 5795 5793 5792 5790 5788 5787 5788 5787 5786 5783 5782 5781 5780 5780 5781 5778 5778 5776 5775 5775 5773 5771 5771 5772
5821 5816 5815 5819 5827 5822 5817 5816 5824 5825 5822 5822 5819 5816 5814 5813 5812 5810 5810 5809 5807 5803 5801 5799 5796 5795 5793 5791 5789 5787 5786 5787 5786 5785 5782 5781 5780 5779 5780 5777 5778 5777 5774 5773 5772 5771 5771 5772 5772
5818 5817 5816 5815 5820 5824 5817 5812 5818 5823 5825 5823 5822 5822 5820 5816 5812 5809 5808 5807 5806 5802 5800 5799 5796 5795 5792 5791 5790 5787 5785 5784 5784 5782 5781 5780 5779 5777 5776 5776 5776 5774 5775 5773 5771 5770 5769 5768 5770
5811 5824 5821 5816 5811 5812 5814 5801 5813 5819 5817 5818 5819 5820 5820 5819 5816 5813 5809 5806 5805 5803 5802 5799 5796 5794 5791 5790 5788 5785 5782 5780 5779 5780 5780 5778 5777 5776 5775 5774 5773 5773 5774 5770 5771 5771 5769 5766 5766
5819 5826 5821 5817 5813 5810 5814 5806 5814 5819 5811 5814 5818 5819 5820 5820 5817 5813 5811 5807 5806 5804 5802 5798 5794 5792 5790 5788 5786 5783 5782 5780 5780 5779 5777 5776 5775 5774 5773 5772 5771 5769 5770 5768 5767 5766 5766 5766 5765
5825 5819 5816 5816 5813 5794 5808 5803 5806 5818 5815 5817 5818 5819 5818 5818 5816 5813 5811 5808 5805 5804 5801 5797 5792 5788 5787 5785 5784 5781 5778 5776 5775 5773 5773 5773 5773 5773 5772 5770 5768 5767 5767 5765 5764 5764 5763 5762 5761
5819 5807 5793 5789 5790 5794 5811 5804 5807 5821 5824 5822 5819 5818 5817 5816 5813 5810 5807 5804 5802 5800 5799 5795 5790 5785 5785 5783 5781 5779 5777 5775 5772 5771 5771 5770 5770 5769 5768 5768 5765 5765 5763 5763 5762 5761 5760 5759 5757
5814 5812 5790 5779 5785 5800 5805 5802 5815 5825 5826 5826 5823 5820 5816 5814 5811 5808 5805 5803 5800 5798 5795 5792 5788 5784 5783 5780 5778 5777 5775 5775 5774 5771 5771 5769 5768 5767 5765 5764 5762 5761 5761 5760 5759 5759 5757 5756 5754
5810 5811 5821 5805 5799 5794 5803 5807 5816 5822 5819 5819 5818 5815 5812 5811 5809 5807 5804 5802 5798 5795 5793 5790 5786 5783 5781 5779 5776 5774 5772 5771 5770 5767 5767 5766 5764 5764 5762 5760 5759 5758 5757 5756 5754 5754 5752 5751 5751
5822 5820 5809 5800 5779 5778 5792 5799 5807 5809 5811 5813 5812 5810 5809 5808 5807 5804 5802 5799 5797 5794 5791 5788 5785 5780 5778 5777 5774 5773 5770 5768 5766 5764 5762 5761 5759 5758 5757 5756 5755 5753 5752 5751 5750 5749 5748 5746 5745
5807 5807 5805 5803 5799 5783 5781 5798 5822 5816 5815 5812 5811 5810 5807 5805 5804 5801 5798 5796 5793 5791 5788 5783 5780 5777 5775 5773 5770 5768 5766 5764 5762 5760 5758 5756 5754 5753 5752 5751 5750 5749 5748 5747 5745 5745 5742 5740 5739
5816 5812 5806 5790 5785 5791 5790 5798 5823 5820 5819 5815 5810 5807 5805 5803 5801 5798 5794 5790 5788 5785 5783 5780 5777 5774 5771 5769 5766 5763 5761 5759 5757 5756 5753 5752 5749 5748 5747 5746 5745 5744 5743 5741 5740 5738 5737 5735 5733